Hourly Data Report for September 09, 2017

All times are specified in Local Standard Time (LST). Add 1 hour to adjust for Daylight Saving Time where and when it is observed.

HALL BEACH A
NUNAVUT

68°46'33.000" N
81°14'33.000" W
9.10 m
2402354
71293
YUX

Related Data

No related data is available for this station

Download Data

Hourly Data (September 2017)
Hourly Data Report for September 9, 2017
Temp Definition
°C
Dew Point Temp Definition
°C
Rel Hum Definition
%
Wind Dir Definition
10's deg

Wind Spd Definition
km/h
Visibility Definition
km
Stn Press Definition
kPa
Hmdx Definition


Wind Chill Definition


Weather Definition


TIME
00:00 Legend Double Dagger -1.6 -4.3 82 3 46 16.1 98.09   -10 LegendNANA
01:00 Legend Double Dagger -1.5 -4.9 78 3 52 16.1 98.08   -10 LegendNANA
02:00 Legend Double Dagger -1.5 -5.1 77 2 46 16.1 98.19   -10 LegendNANA
03:00 Legend Double Dagger -1.8 -4.9 80 1 39 16.1 98.23   -10 LegendNANA
04:00 Legend Double Dagger -2.0 -5.8 75 36 35 16.1 98.32   -10 LegendNANA
05:00 Legend Double Dagger -2.2 -6.1 75 36 35 16.1 98.38   -10 LegendNANA
06:00 Legend Double Dagger -2.1 -6.0 75 34 37 16.1 98.46   -10 LegendNANA
07:00 Legend Double Dagger -2.0 -4.7 82 35 45 16.1 98.52   -10 LegendNANA
08:00 Legend Double Dagger -1.7 -4.4 82 33 46 16.1 98.62   -10 LegendNANA
09:00 Legend Double Dagger -1.0 -3.5 83 32 48 16.1 98.64   -9 LegendNANA
10:00 Legend Double Dagger -0.3 -3.1 82 31 43 16.1 98.72   -8 LegendNANA
11:00 Legend Double Dagger 0.4 -2.4 82 31 46 16.1 98.75     LegendNANA
12:00 Legend Double Dagger 1.1 -2.0 80 31 48 16.1 98.81     LegendNANA
13:00 Legend Double Dagger 1.6 -1.3 81 31 43 16.1 98.92     LegendNANA
14:00 Legend Double Dagger 2.2 -0.9 80 30 46 16.1 99.00     LegendNANA
15:00 Legend Double Dagger 2.4 -0.7 80 30 46 16.1 99.05     LegendNANA
16:00 Legend Double Dagger 2.9 -1.0 76 31 54 16.1 99.13     LegendNANA
17:00 Legend Double Dagger 2.7 -1.0 77 31 46 16.1 99.24     LegendNANA
18:00 Legend Double Dagger 2.3 -1.7 75 32 50 16.1 99.34     LegendNANA
19:00 Legend Double Dagger 1.7 -3.0 71 32 58 16.1 99.47     LegendNANA
20:00 Legend Double Dagger 1.3 -3.3 71 33 48 16.1 99.62     LegendNANA
21:00 Legend Double Dagger 1.1 -3.8 70 32 54 16.1 99.76     LegendNANA
22:00 Legend Double Dagger 0.8 -4.1 70 32 48 16.1 99.91     LegendNANA
23:00 Legend Double Dagger 0.2 -4.0 73 31 46 16.1 100.05     LegendNANA

Notes on Data Quality.

Legend

  • E = Estimated
  • M = Missing
  • NA = Not Available
  • ‡ = Partner data that is not subject to review by the National Climate Archives
Date modified: